Time,TemperatureF,DewpointF,PressureIn,WindDirection,WindDirectionDegrees,WindSpeedMPH,WindSpeedGustMPH,Humidity,HourlyPrecipIn,Conditions,Clouds,dailyrainin,SoftwareType,DateUTC
2013-02-18 00:00:00,18.6,7.8,29.74,WNW,292,30.0,45.0,62,0.00,,SKC,0.00,VWS V13.01,2013-02-18 05:00:00,
2013-02-18 00:10:00,18.5,7.3,29.75,WNW,292,30.0,46.0,61,0.00,,SKC,0.00,VWS V13.01,2013-02-18 05:10:00,
2013-02-18 00:20:00,18.4,8.3,29.75,WNW,292,31.0,45.0,64,0.00,,SKC,0.00,VWS V13.01,2013-02-18 05:20:00,
2013-02-18 00:30:00,18.2,8.1,29.76,WNW,292,28.0,42.0,64,0.00,,SKC,0.00,VWS V13.01,2013-02-18 05:30:00,
2013-02-18 00:40:00,18.2,8.4,29.76,WNW,292,26.0,42.0,65,0.00,,SKC,0.00,VWS V13.01,2013-02-18 05:40:00,
2013-02-18 00:50:00,18.2,7.7,29.77,WNW,292,31.0,46.0,63,0.00,,SKC,0.00,VWS V13.01,2013-02-18 05:50:00,
2013-02-18 01:00:00,18.2,7.4,29.76,NW,315,29.0,46.0,62,0.00,,SKC,0.00,VWS V13.01,2013-02-18 06:00:00,
2013-02-18 01:10:00,18.2,7.4,29.77,WNW,292,31.0,46.0,62,0.00,,SKC,0.00,VWS V13.01,2013-02-18 06:10:00,
2013-02-18 01:20:00,18.3,8.2,29.77,NW,315,29.0,44.0,64,0.00,,SKC,0.00,VWS V13.01,2013-02-18 06:20:00,
2013-02-18 01:30:00,18.2,7.7,29.78,NW,315,27.0,42.0,63,0.00,,SKC,0.00,VWS V13.01,2013-02-18 06:30:00,
2013-02-18 01:40:00,18.1,8.3,29.79,WNW,292,28.0,46.0,65,0.00,,SKC,0.00,VWS V13.01,2013-02-18 06:40:00,
2013-02-18 01:50:00,18.0,7.2,29.79,NW,315,33.0,51.0,62,0.00,,SKC,0.00,VWS V13.01,2013-02-18 06:50:00,
2013-02-18 02:00:00,18.1,8.3,29.79,NW,315,29.0,44.0,65,0.00,,SKC,0.00,VWS V13.01,2013-02-18 07:00:00,
2013-02-18 02:10:00,18.2,8.4,29.79,WNW,292,28.0,43.0,65,0.00,,SKC,0.00,VWS V13.01,2013-02-18 07:10:00,
2013-02-18 02:20:00,18.1,7.6,29.79,NW,315,32.0,51.0,63,0.00,,SKC,0.00,VWS V13.01,2013-02-18 07:20:00,
2013-02-18 02:30:00,18.0,7.9,29.79,WNW,292,32.0,47.0,64,0.00,,SKC,0.00,VWS V13.01,2013-02-18 07:30:00,
2013-02-18 02:40:00,18.1,8.3,29.80,WNW,292,30.0,48.0,65,0.00,,SKC,0.00,VWS V13.01,2013-02-18 07:40:00,
2013-02-18 02:50:00,17.9,7.4,29.80,NW,315,34.0,51.0,63,0.00,,SKC,0.00,VWS V13.01,2013-02-18 07:50:00,
2013-02-18 03:00:00,18.0,8.2,29.81,WNW,292,26.0,41.0,65,0.00,,SKC,0.00,VWS V13.01,2013-02-18 08:00:00,
2013-02-18 03:10:00,18.1,8.0,29.81,WNW,292,32.0,46.0,64,0.00,,SKC,0.00,VWS V13.01,2013-02-18 08:10:00,
2013-02-18 03:20:00,18.1,8.7,29.81,NW,315,29.0,46.0,66,0.00,,SKC,0.00,VWS V13.01,2013-02-18 08:20:00,
2013-02-18 03:30:00,18.1,7.3,29.82,WNW,292,32.0,49.0,62,0.00,,SKC,0.00,VWS V13.01,2013-02-18 08:30:00,
2013-02-18 03:40:00,18.0,6.8,29.82,NW,315,31.0,46.0,61,0.00,,SKC,0.00,VWS V13.01,2013-02-18 08:40:00,
2013-02-18 03:50:00,18.2,8.1,29.83,NW,315,33.0,51.0,64,0.00,,SKC,0.00,VWS V13.01,2013-02-18 08:50:00,
2013-02-18 04:00:00,18.2,7.7,29.83,WNW,292,33.0,52.0,63,0.00,,SKC,0.00,VWS V13.01,2013-02-18 09:00:00,
2013-02-18 04:10:00,18.2,7.4,29.84,WNW,292,32.0,51.0,62,0.00,,SKC,0.00,VWS V13.01,2013-02-18 09:10:00,
2013-02-18 04:20:00,18.2,7.7,29.85,NW,315,31.0,46.0,63,0.00,,SKC,0.00,VWS V13.01,2013-02-18 09:20:00,
2013-02-18 04:30:00,18.2,8.1,29.85,WNW,292,29.0,48.0,64,0.00,,SKC,0.00,VWS V13.01,2013-02-18 09:30:00,
2013-02-18 04:40:00,18.2,7.7,29.86,WNW,292,30.0,45.0,63,0.00,,SKC,0.00,VWS V13.01,2013-02-18 09:40:00,
2013-02-18 04:50:00,18.1,8.0,29.87,NW,315,32.0,47.0,64,0.00,,SKC,0.00,VWS V13.01,2013-02-18 09:50:00,
2013-02-18 05:00:00,18.2,8.1,29.88,NW,315,30.0,44.0,64,0.00,,SKC,0.00,VWS V13.01,2013-02-18 10:00:00,
2013-02-18 05:10:00,18.2,8.1,29.88,NW,315,29.0,44.0,64,0.00,,SKC,0.00,VWS V13.01,2013-02-18 10:10:00,
2013-02-18 05:20:00,18.1,8.3,29.88,NW,315,28.0,47.0,65,0.00,,SKC,0.00,VWS V13.01,2013-02-18 10:20:00,
2013-02-18 05:30:00,18.1,8.3,29.89,WNW,292,28.0,45.0,65,0.00,,SKC,0.00,VWS V13.01,2013-02-18 10:30:00,
2013-02-18 05:40:00,18.1,8.3,29.90,WNW,292,29.0,46.0,65,0.00,,SKC,0.00,VWS V13.01,2013-02-18 10:40:00,
2013-02-18 05:50:00,18.0,8.2,29.90,WNW,292,28.0,40.0,65,0.00,,SKC,0.00,VWS V13.01,2013-02-18 10:50:00,
2013-02-18 06:00:00,18.0,8.2,29.91,NW,315,30.0,46.0,65,0.00,,SKC,0.00,VWS V13.01,2013-02-18 11:00:00,
2013-02-18 06:10:00,18.0,8.2,29.92,WNW,292,29.0,46.0,65,0.00,,SKC,0.00,VWS V13.01,2013-02-18 11:10:00,
2013-02-18 06:20:00,18.0,8.2,29.92,NW,315,31.0,46.0,65,0.00,,SKC,0.00,VWS V13.01,2013-02-18 11:20:00,
2013-02-18 06:30:00,18.1,8.3,29.92,NW,315,30.0,48.0,65,0.00,,SKC,0.00,VWS V13.01,2013-02-18 11:30:00,
2013-02-18 06:40:00,18.2,8.1,29.93,NW,315,32.0,46.0,64,0.00,,SKC,0.00,VWS V13.01,2013-02-18 11:40:00,
2013-02-18 06:50:00,18.2,8.1,29.94,NW,315,30.0,45.0,64,0.00,,SKC,0.00,VWS V13.01,2013-02-18 11:50:00,
2013-02-18 07:00:00,18.4,8.6,29.95,NW,315,28.0,48.0,65,0.00,,SKC,0.00,VWS V13.01,2013-02-18 12:00:00,
2013-02-18 07:10:00,18.4,9.0,29.96,NW,315,25.0,43.0,66,0.00,,SKC,0.00,VWS V13.01,2013-02-18 12:10:00,
2013-02-18 07:20:00,18.6,8.8,29.97,NW,315,27.0,42.0,65,0.00,,SKC,0.00,VWS V13.01,2013-02-18 12:20:00,
2013-02-18 07:30:00,19.1,8.6,29.98,WNW,292,28.0,44.0,63,0.00,,SKC,0.00,VWS V13.01,2013-02-18 12:30:00,
2013-02-18 07:40:00,19.6,9.4,29.98,NW,315,27.0,48.0,64,0.00,,SKC,0.00,VWS V13.01,2013-02-18 12:40:00,
2013-02-18 07:50:00,20.0,9.4,29.99,WNW,292,24.0,40.0,63,0.00,,SKC,0.00,VWS V13.01,2013-02-18 12:50:00,
2013-02-18 08:00:00,20.2,8.9,30.00,WNW,292,28.0,41.0,61,0.00,,SKC,0.00,VWS V13.01,2013-02-18 13:00:00,
2013-02-18 08:10:00,20.6,9.7,30.00,WNW,292,25.0,43.0,62,0.00,,SKC,0.00,VWS V13.01,2013-02-18 13:10:00,
2013-02-18 08:20:00,20.8,9.1,30.01,NW,315,26.0,39.0,60,0.00,,SKC,0.00,VWS V13.01,2013-02-18 13:20:00,
2013-02-18 08:30:00,21.1,9.8,30.01,NW,315,23.0,38.0,61,0.00,,SKC,0.00,VWS V13.01,2013-02-18 13:30:00,
2013-02-18 08:40:00,21.4,10.1,30.01,WNW,292,22.0,37.0,61,0.00,,SKC,0.00,VWS V13.01,2013-02-18 13:40:00,
2013-02-18 08:50:00,21.4,8.9,30.02,NW,315,25.0,37.0,58,0.00,,SKC,0.00,VWS V13.01,2013-02-18 13:50:00,
2013-02-18 09:00:00,21.7,9.2,30.02,NW,315,24.0,39.0,58,0.00,,SKC,0.00,VWS V13.01,2013-02-18 14:00:00,
2013-02-18 09:10:00,22.3,9.8,30.03,NW,315,21.0,35.0,58,0.00,,SKC,0.00,VWS V13.01,2013-02-18 14:10:00,
2013-02-18 09:20:00,22.5,9.6,30.02,NW,315,23.0,36.0,57,0.00,,SKC,0.00,VWS V13.01,2013-02-18 14:20:00,
2013-02-18 09:30:00,22.8,9.5,30.03,WNW,292,24.0,37.0,56,0.00,,SKC,0.00,VWS V13.01,2013-02-18 14:30:00,
2013-02-18 09:40:00,23.2,9.4,30.02,NW,315,26.0,40.0,55,0.00,,SKC,0.00,VWS V13.01,2013-02-18 14:40:00,
2013-02-18 09:50:00,23.8,10.4,30.02,NW,315,23.0,37.0,56,0.00,,SKC,0.00,VWS V13.01,2013-02-18 14:50:00,
2013-02-18 10:00:00,24.2,10.4,30.02,NW,315,23.0,39.0,55,0.00,,SKC,0.00,VWS V13.01,2013-02-18 15:00:00,
2013-02-18 10:20:00,25.3,10.1,30.03,WNW,292,24.0,37.0,52,0.00,,SKC,0.00,VWS V13.01,2013-02-18 15:20:00,
2013-02-18 10:30:00,25.6,9.6,30.04,NW,315,26.0,40.0,50,0.00,,SKC,0.00,VWS V13.01,2013-02-18 15:30:00,
2013-02-18 10:40:00,26.0,9.5,30.04,NW,315,23.0,37.0,49,0.00,,SKC,0.00,VWS V13.01,2013-02-18 15:40:00,
2013-02-18 10:50:00,26.6,10.0,30.04,WNW,292,22.0,34.0,49,0.00,,SKC,0.00,VWS V13.01,2013-02-18 15:50:00,
2013-02-18 11:00:00,27.1,10.9,30.05,WNW,292,21.0,34.0,50,0.00,,SKC,0.00,VWS V13.01,2013-02-18 16:00:00,
2013-02-18 11:10:00,27.8,11.1,30.05,WNW,292,17.0,32.0,49,0.00,,SKC,0.00,VWS V13.01,2013-02-18 16:10:00,
2013-02-18 11:20:00,28.0,10.9,30.05,WNW,292,23.0,33.0,48,0.00,,SKC,0.00,VWS V13.01,2013-02-18 16:20:00,
2013-02-18 11:30:00,28.6,11.9,30.05,WNW,292,21.0,34.0,49,0.00,,SKC,0.00,VWS V13.01,2013-02-18 16:30:00,
2013-02-18 11:40:00,28.3,10.7,30.06,WNW,292,22.0,35.0,47,0.00,,SKC,0.00,VWS V13.01,2013-02-18 16:40:00,
2013-02-18 11:50:00,28.3,11.1,30.05,WNW,292,21.0,36.0,48,0.00,,SKC,0.00,VWS V13.01,2013-02-18 16:50:00,
2013-02-18 12:00:00,28.7,11.0,30.05,WNW,292,24.0,35.0,47,0.00,,SKC,0.00,VWS V13.01,2013-02-18 17:00:00,
2013-02-18 12:10:00,28.7,12.0,30.05,WNW,292,21.0,36.0,49,0.00,,SKC,0.00,VWS V13.01,2013-02-18 17:10:00,
2013-02-18 12:20:00,28.6,11.4,30.05,WNW,292,22.0,34.0,48,0.00,,SKC,0.00,VWS V13.01,2013-02-18 17:20:00,
2013-02-18 12:30:00,28.6,10.9,30.05,WNW,292,22.0,35.0,47,0.00,,SKC,0.00,VWS V13.01,2013-02-18 17:30:00,
2013-02-18 12:40:00,29.0,11.3,30.06,WNW,292,23.0,37.0,47,0.00,,SKC,0.00,VWS V13.01,2013-02-18 17:40:00,
2013-02-18 12:50:00,29.5,10.8,30.06,WNW,292,23.0,38.0,45,0.00,,SKC,0.00,VWS V13.01,2013-02-18 17:50:00,
2013-02-18 13:00:00,30.1,10.8,30.05,WNW,292,24.0,40.0,44,0.00,,SKC,0.00,VWS V13.01,2013-02-18 18:00:00,
2013-02-18 13:10:00,29.7,10.0,30.06,WNW,292,25.0,41.0,43,0.00,,SKC,0.00,VWS V13.01,2013-02-18 18:10:00,
2013-02-18 13:20:00,30.5,10.2,30.04,WNW,292,27.0,44.0,42,0.00,,SKC,0.00,VWS V13.01,2013-02-18 18:20:00,
2013-02-18 13:30:00,30.0,8.6,30.07,WNW,292,28.0,41.0,40,0.00,,SKC,0.00,VWS V13.01,2013-02-18 18:30:00,
2013-02-18 13:40:00,30.5,10.2,30.07,WNW,292,20.0,33.0,42,0.00,,SKC,0.00,VWS V13.01,2013-02-18 18:40:00,
2013-02-18 13:50:00,31.0,11.7,30.07,West,270,19.0,29.0,44,0.00,,SKC,0.00,VWS V13.01,2013-02-18 18:50:00,
2013-02-18 14:00:00,30.8,10.4,30.07,WNW,292,18.0,31.0,42,0.00,,SKC,0.00,VWS V13.01,2013-02-18 19:00:00,
2013-02-18 14:10:00,31.5,9.4,30.06,WNW,292,19.0,30.0,39,0.00,,SKC,0.00,VWS V13.01,2013-02-18 19:10:00,
2013-02-18 14:20:00,31.6,11.7,30.06,WNW,292,21.0,34.0,43,0.00,,SKC,0.00,VWS V13.01,2013-02-18 19:20:00,
2013-02-18 14:30:00,31.6,11.7,30.06,West,270,19.0,31.0,43,0.00,,SKC,0.00,VWS V13.01,2013-02-18 19:30:00,
2013-02-18 14:40:00,32.0,12.6,30.06,West,270,19.0,33.0,44,0.00,,SKC,0.00,VWS V13.01,2013-02-18 19:40:00,
2013-02-18 14:50:00,31.7,12.8,30.06,West,270,17.0,28.0,45,0.00,,SKC,0.00,VWS V13.01,2013-02-18 19:50:00,
2013-02-18 15:00:00,31.7,12.3,30.06,West,270,19.0,30.0,44,0.00,,SKC,0.00,VWS V13.01,2013-02-18 20:00:00,
2013-02-18 15:10:00,32.0,11.0,30.07,West,270,19.0,33.0,41,0.00,,SKC,0.00,VWS V13.01,2013-02-18 20:10:00,
2013-02-18 15:20:00,32.4,11.9,30.06,WNW,292,18.0,33.0,42,0.00,,SKC,0.00,VWS V13.01,2013-02-18 20:20:00,
2013-02-18 15:30:00,32.7,11.1,30.06,West,270,17.0,32.0,40,0.00,,SKC,0.00,VWS V13.01,2013-02-18 20:30:00,
2013-02-18 15:40:00,32.5,10.9,30.06,West,270,17.0,28.0,40,0.00,,SKC,0.00,VWS V13.01,2013-02-18 20:40:00,
2013-02-18 15:50:00,32.5,10.9,30.07,West,270,18.0,29.0,40,0.00,,SKC,0.00,VWS V13.01,2013-02-18 20:50:00,
2013-02-18 16:00:00,32.5,11.4,30.07,West,270,18.0,32.0,41,0.00,,SKC,0.00,VWS V13.01,2013-02-18 21:00:00,
2013-02-18 16:10:00,32.8,11.1,30.07,West,270,18.0,29.0,40,0.00,,SKC,0.00,VWS V13.01,2013-02-18 21:10:00,
2013-02-18 16:20:00,32.7,11.6,30.07,West,270,16.0,28.0,41,0.00,,SKC,0.00,VWS V13.01,2013-02-18 21:20:00,
2013-02-18 16:30:00,32.4,11.9,30.08,West,270,16.0,31.0,42,0.00,,SKC,0.00,VWS V13.01,2013-02-18 21:30:00,
2013-02-18 16:40:00,32.1,11.6,30.08,West,270,17.0,31.0,42,0.00,,SKC,0.00,VWS V13.01,2013-02-18 21:40:00,
2013-02-18 16:50:00,32.1,11.1,30.09,West,270,17.0,31.0,41,0.00,,SKC,0.00,VWS V13.01,2013-02-18 21:50:00,
2013-02-18 17:00:00,31.8,10.2,30.10,WNW,292,17.0,25.0,40,0.00,,SKC,0.00,VWS V13.01,2013-02-18 22:00:00,
2013-02-18 17:10:00,31.1,11.8,30.10,West,270,17.0,27.0,44,0.00,,SKC,0.00,VWS V13.01,2013-02-18 22:10:00,
2013-02-18 17:20:00,30.7,11.9,30.10,West,270,16.0,25.0,45,0.00,,SKC,0.00,VWS V13.01,2013-02-18 22:20:00,
2013-02-18 17:30:00,30.6,10.8,30.10,West,270,16.0,25.0,43,0.00,,SKC,0.00,VWS V13.01,2013-02-18 22:30:00,
2013-02-18 17:40:00,30.6,11.3,30.11,West,270,14.0,24.0,44,0.00,,SKC,0.00,VWS V13.01,2013-02-18 22:40:00,
2013-02-18 17:50:00,30.7,10.9,30.11,WNW,292,18.0,28.0,43,0.00,,SKC,0.00,VWS V13.01,2013-02-18 22:50:00,
2013-02-18 18:00:00,30.8,11.0,30.12,West,270,14.0,25.0,43,0.00,,SKC,0.00,VWS V13.01,2013-02-18 23:00:00,
2013-02-18 18:10:00,30.9,12.1,30.12,West,270,13.0,22.0,45,0.00,,SKC,0.00,VWS V13.01,2013-02-18 23:10:00,
2013-02-18 18:20:00,31.0,11.1,30.12,West,270,14.0,24.0,43,0.00,,SKC,0.00,VWS V13.01,2013-02-18 23:20:00,
2013-02-18 18:30:00,31.1,11.8,30.12,West,270,12.0,20.0,44,0.00,,SKC,0.00,VWS V13.01,2013-02-18 23:30:00,
2013-02-18 18:40:00,31.1,11.8,30.13,West,270,13.0,22.0,44,0.00,,SKC,0.00,VWS V13.01,2013-02-18 23:40:00,
2013-02-18 18:50:00,31.1,12.2,30.13,West,270,13.0,22.0,45,0.00,,SKC,0.00,VWS V13.01,2013-02-18 23:50:00,
2013-02-18 19:00:00,31.1,12.2,30.13,West,270,14.0,22.0,45,0.00,,SKC,0.00,VWS V13.01,2013-02-19 00:00:00,
2013-02-18 19:10:00,31.4,12.0,30.14,West,270,14.0,22.0,44,0.00,,SKC,0.00,VWS V13.01,2013-02-19 00:10:00,
2013-02-18 19:20:00,31.4,12.5,30.14,West,270,13.0,22.0,45,0.00,,SKC,0.00,VWS V13.01,2013-02-19 00:20:00,
2013-02-18 19:30:00,31.5,12.1,30.14,West,270,15.0,23.0,44,0.00,,SKC,0.00,VWS V13.01,2013-02-19 00:30:00,
2013-02-18 19:40:00,31.5,13.1,30.14,West,270,14.0,22.0,46,0.00,,SKC,0.00,VWS V13.01,2013-02-19 00:40:00,
2013-02-18 19:50:00,31.4,13.0,30.14,West,270,12.0,22.0,46,0.00,,SKC,0.00,VWS V13.01,2013-02-19 00:50:00,
2013-02-18 20:00:00,31.4,14.0,30.15,West,270,12.0,21.0,48,0.00,,SKC,0.00,VWS V13.01,2013-02-19 01:00:00,
2013-02-18 20:10:00,31.4,19.5,30.14,WSW,248,14.0,24.0,61,0.00,,SKC,0.00,VWS V13.01,2013-02-19 01:10:00,
2013-02-18 20:20:00,31.1,20.7,30.14,WSW,248,14.0,21.0,65,0.00,,SKC,0.00,VWS V13.01,2013-02-19 01:20:00,
2013-02-18 20:30:00,31.2,16.1,30.14,West,270,13.0,22.0,53,0.00,,SKC,0.00,VWS V13.01,2013-02-19 01:30:00,
2013-02-18 20:40:00,31.7,17.4,30.15,West,270,14.0,22.0,55,0.00,,SKC,0.00,VWS V13.01,2013-02-19 01:40:00,
2013-02-18 20:50:00,31.8,16.6,30.15,West,270,14.0,23.0,53,0.00,,SKC,0.00,VWS V13.01,2013-02-19 01:50:00,
2013-02-18 21:00:00,31.8,16.2,30.16,West,270,14.0,26.0,52,0.00,,SKC,0.00,VWS V13.01,2013-02-19 02:00:00,
2013-02-18 21:10:00,31.7,16.1,30.16,West,270,13.0,23.0,52,0.00,,SKC,0.00,VWS V13.01,2013-02-19 02:10:00,
2013-02-18 21:20:00,31.7,16.5,30.16,West,270,14.0,24.0,53,0.00,,SKC,0.00,VWS V13.01,2013-02-19 02:20:00,
2013-02-18 21:30:00,31.8,18.7,30.16,West,270,15.0,24.0,58,0.00,,SKC,0.00,VWS V13.01,2013-02-19 02:30:00,
2013-02-18 21:40:00,31.3,20.2,30.16,WSW,248,13.0,21.0,63,0.00,,SKC,0.00,VWS V13.01,2013-02-19 02:40:00,
2013-02-18 21:50:00,31.1,20.0,30.16,WSW,248,13.0,21.0,63,0.00,,SKC,0.00,VWS V13.01,2013-02-19 02:50:00,
2013-02-18 22:00:00,31.0,19.9,30.17,WSW,248,13.0,19.0,63,0.00,,SKC,0.00,VWS V13.01,2013-02-19 03:00:00,
2013-02-18 22:10:00,31.0,19.5,30.17,WSW,248,14.0,21.0,62,0.00,,SKC,0.00,VWS V13.01,2013-02-19 03:10:00,
2013-02-18 22:20:00,30.9,20.2,30.17,WSW,248,13.0,20.0,64,0.00,,SKC,0.00,VWS V13.01,2013-02-19 03:20:00,
2013-02-18 22:40:00,31.2,20.8,30.17,WSW,248,15.0,22.0,65,0.00,,SKC,0.00,VWS V13.01,2013-02-19 03:40:00,
2013-02-18 22:50:00,31.5,20.4,30.17,WSW,248,15.0,25.0,63,0.00,,SKC,0.00,VWS V13.01,2013-02-19 03:50:00,
2013-02-18 23:00:00,31.6,19.3,30.17,WSW,248,15.0,26.0,60,0.00,,SKC,0.00,VWS V13.01,2013-02-19 04:00:00,
2013-02-18 23:10:00,31.6,19.3,30.17,WSW,248,14.0,23.0,60,0.00,,SKC,0.00,VWS V13.01,2013-02-19 04:10:00,
2013-02-18 23:20:00,31.7,19.4,30.17,WSW,248,13.0,19.0,60,0.00,,SKC,0.00,VWS V13.01,2013-02-19 04:20:00,
2013-02-18 23:30:00,31.7,20.2,30.17,WSW,248,12.0,20.0,62,0.00,,SKC,0.00,VWS V13.01,2013-02-19 04:30:00,
2013-02-18 23:40:00,32.0,21.6,30.18,WSW,248,13.0,20.0,65,0.00,,SKC,0.00,VWS V13.01,2013-02-19 04:40:00,
2013-02-18 23:50:00,31.5,20.4,30.18,WSW,248,13.0,19.0,63,0.00,,SKC,0.00,VWS V13.01,2013-02-19 04:50:00,